RPC7845 RPVB-RPVM

Flight info

Callsign RPC7845
Flight time 1h 15m
Altitude 9000
Route KEVA2C KEVAN KEVA1A
Aircraft C172/L-SDGF/C

Departure

Time 2026-04-30 02:37
Airport Bacolod-Silay International Airport (RPVB)

Arrival

Time 2026-04-30 03:52
Airport Mactan Cebu International Airport (RPVM)
Time Latitude Longitude Altitude Speed Heading
2026-04-30 02:22 10.77256 123.01360 79 ft 0 kts 30°
2026-04-30 02:33 10.77276 123.01383 78 ft 7 kts 46°
2026-04-30 02:33 10.77315 123.01438 78 ft 11 kts 113°
2026-04-30 02:34 10.77352 123.01483 78 ft 14 kts 28°
2026-04-30 02:34 10.77345 123.01548 80 ft 11 kts 119°
2026-04-30 02:34 10.77317 123.01596 81 ft 4 kts 120°
2026-04-30 02:34 10.77305 123.01617 79 ft 3 kts 120°
2026-04-30 02:35 10.77260 123.01662 79 ft 16 kts 170°
2026-04-30 02:35 10.77133 123.01603 79 ft 23 kts 212°
2026-04-30 02:35 10.76978 123.01511 79 ft 18 kts 210°
2026-04-30 02:35 10.76910 123.01436 80 ft 12 kts 188°
2026-04-30 02:36 10.76902 123.01469 80 ft 0 kts 28°
2026-04-30 02:36 10.76952 123.01497 80 ft 29 kts 31°
2026-04-30 02:36 10.77228 123.01661 124 ft 55 kts 27°
2026-04-30 02:36 10.77592 123.01872 282 ft 62 kts 29°
2026-04-30 02:37 10.77967 123.02091 577 ft 60 kts 28°
2026-04-30 02:37 10.78325 123.02292 926 ft 56 kts 27°
2026-04-30 02:37 10.78693 123.02446 1241 ft 58 kts 23°
2026-04-30 02:37 10.79055 123.02591 1549 ft 55 kts 22°
2026-04-30 02:38 10.79459 123.02735 1657 ft 66 kts 24°
2026-04-30 02:38 10.79876 123.02886 1895 ft 65 kts 22°
2026-04-30 02:38 10.80351 123.02997 2094 ft 73 kts 21°
2026-04-30 02:38 10.80831 123.03174 2266 ft 74 kts 27°
2026-04-30 02:39 10.81275 123.03483 2500 ft 77 kts 45°
2026-04-30 02:39 10.81728 123.03800 2692 ft 80 kts 30°
2026-04-30 02:39 10.82258 123.03987 2861 ft 79 kts 26°
2026-04-30 02:39 10.82767 123.04161 3057 ft 78 kts 28°
2026-04-30 02:40 10.83280 123.04350 3206 ft 79 kts 29°
2026-04-30 02:40 10.83796 123.04545 3322 ft 80 kts 29°
2026-04-30 02:40 10.84309 123.04687 3547 ft 71 kts 22°
2026-04-30 02:40 10.84737 123.04858 3750 ft 67 kts 32°
2026-04-30 02:41 10.85206 123.05093 3792 ft 75 kts 36°
2026-04-30 02:41 10.85714 123.05237 3968 ft 88 kts 349°
2026-04-30 02:41 10.86002 123.04706 4187 ft 104 kts 263°
2026-04-30 02:41 10.85695 123.04139 4374 ft 76 kts 179°
2026-04-30 02:42 10.85106 123.04057 4389 ft 100 kts 187°
2026-04-30 02:42 10.84448 123.03744 4474 ft 107 kts 201°
2026-04-30 02:42 10.83793 123.03434 4650 ft 100 kts 183°
2026-04-30 02:42 10.83103 123.03197 4821 ft 100 kts 198°
2026-04-30 02:43 10.82488 123.02994 5054 ft 91 kts 186°
2026-04-30 02:43 10.81865 123.02774 5130 ft 98 kts 190°
2026-04-30 02:43 10.81219 123.02586 5246 ft 95 kts 180°
2026-04-30 02:43 10.80582 123.02461 5379 ft 94 kts 180°
2026-04-30 02:44 10.79954 123.02330 5525 ft 90 kts 184°
2026-04-30 02:44 10.79372 123.02170 5717 ft 83 kts 187°
2026-04-30 02:44 10.78851 123.02058 5911 ft 77 kts 180°
2026-04-30 02:44 10.78328 123.01882 6023 ft 78 kts 185°
2026-04-30 02:45 10.77863 123.01844 6123 ft 61 kts 136°
2026-04-30 02:45 10.77594 123.02226 6147 ft 74 kts 110°
2026-04-30 02:45 10.77337 123.02690 6310 ft 74 kts 115°
2026-04-30 02:45 10.77079 123.03146 6401 ft 76 kts 112°
2026-04-30 02:46 10.76833 123.03596 6574 ft 73 kts 118°
2026-04-30 02:46 10.76568 123.04030 6675 ft 73 kts 112°
2026-04-30 02:46 10.76329 123.04493 6748 ft 75 kts 113°
2026-04-30 02:46 10.76093 123.04948 6908 ft 68 kts 116°
2026-04-30 02:47 10.75867 123.05316 7115 ft 60 kts 112°
2026-04-30 02:47 10.75674 123.05709 7213 ft 66 kts 109°
2026-04-30 02:47 10.75479 123.06139 7307 ft 68 kts 110°
2026-04-30 02:47 10.75281 123.06570 7404 ft 67 kts 109°
2026-04-30 02:48 10.75092 123.07002 7496 ft 67 kts 110°
2026-04-30 02:48 10.74916 123.07446 7605 ft 70 kts 112°
2026-04-30 02:48 10.74659 123.07909 7696 ft 78 kts 114°
2026-04-30 02:48 10.74399 123.08386 7790 ft 76 kts 114°
2026-04-30 02:49 10.74142 123.08851 7888 ft 76 kts 115°
2026-04-30 02:49 10.73887 123.09314 7988 ft 75 kts 115°
2026-04-30 02:49 10.73624 123.09786 8088 ft 78 kts 114°
2026-04-30 02:49 10.73358 123.10267 8189 ft 75 kts 114°
2026-04-30 02:50 10.73150 123.10716 8299 ft 64 kts 109°
2026-04-30 02:50 10.73002 123.11117 8424 ft 60 kts 106°
2026-04-30 02:50 10.72848 123.11532 8520 ft 65 kts 105°
2026-04-30 02:50 10.72679 123.11977 8618 ft 70 kts 108°
2026-04-30 02:51 10.72487 123.12444 8719 ft 73 kts 110°
2026-04-30 02:51 10.72277 123.12927 8813 ft 75 kts 111°
2026-04-30 02:51 10.72058 123.13413 8915 ft 75 kts 111°
2026-04-30 02:51 10.71835 123.13905 9007 ft 80 kts 111°
2026-04-30 02:52 10.71575 123.14461 9008 ft 93 kts 112°
2026-04-30 02:52 10.71291 123.15058 9018 ft 94 kts 112°
2026-04-30 02:52 10.71004 123.15661 9017 ft 96 kts 112°
2026-04-30 02:52 10.70715 123.16261 9016 ft 92 kts 112°
2026-04-30 02:53 10.70440 123.16837 9008 ft 89 kts 112°
2026-04-30 02:53 10.70176 123.17391 9009 ft 85 kts 111°
2026-04-30 02:53 10.69930 123.17929 9003 ft 84 kts 110°
2026-04-30 02:53 10.69707 123.18454 9007 ft 79 kts 109°
2026-04-30 02:54 10.69499 123.18991 9015 ft 85 kts 108°
2026-04-30 02:54 10.69301 123.19561 9010 ft 85 kts 107°
2026-04-30 02:54 10.69126 123.20117 9000 ft 80 kts 105°
2026-04-30 02:54 10.68975 123.20640 9009 ft 76 kts 102°
2026-04-30 02:55 10.68841 123.21178 9010 ft 80 kts 101°
2026-04-30 02:55 10.68720 123.21741 9008 ft 81 kts 99°
2026-04-30 02:55 10.68617 123.22303 9010 ft 81 kts 98°
2026-04-30 02:55 10.68532 123.22869 9003 ft 78 kts 97°
2026-04-30 02:56 10.68403 123.23380 9002 ft 77 kts 129°
2026-04-30 02:56 10.67902 123.23554 9007 ft 71 kts 143°
2026-04-30 02:56 10.67538 123.23761 8933 ft 58 kts 123°
2026-04-30 02:56 10.67328 123.24169 8727 ft 75 kts 113°
2026-04-30 02:57 10.67076 123.24581 8812 ft 64 kts 116°
2026-04-30 02:57 10.66832 123.24953 9002 ft 65 kts 113°
2026-04-30 02:57 10.66623 123.25400 9110 ft 74 kts 111°
2026-04-30 02:57 10.66391 123.25931 9042 ft 91 kts 110°
2026-04-30 02:58 10.66144 123.26540 8984 ft 94 kts 109°
2026-04-30 02:58 10.65866 123.27125 8976 ft 91 kts 114°
2026-04-30 02:58 10.65565 123.27686 8972 ft 90 kts 114°
2026-04-30 02:58 10.65277 123.28249 8968 ft 89 kts 113°
2026-04-30 02:59 10.65000 123.28806 8971 ft 87 kts 112°
2026-04-30 02:59 10.64731 123.29355 8965 ft 87 kts 112°
2026-04-30 02:59 10.64463 123.29908 8949 ft 87 kts 112°
2026-04-30 02:59 10.64200 123.30448 8968 ft 84 kts 112°
2026-04-30 03:00 10.63954 123.30962 9008 ft 81 kts 111°
2026-04-30 03:00 10.63701 123.31490 8999 ft 85 kts 111°
2026-04-30 03:00 10.63427 123.32060 8887 ft 92 kts 112°
2026-04-30 03:00 10.63139 123.32658 8769 ft 97 kts 112°
2026-04-30 03:01 10.62839 123.33280 8652 ft 99 kts 112°
2026-04-30 03:01 10.62535 123.33912 8534 ft 100 kts 112°
2026-04-30 03:01 10.62228 123.34551 8411 ft 100 kts 112°
2026-04-30 03:01 10.61922 123.35187 8289 ft 100 kts 112°
2026-04-30 03:02 10.61619 123.35821 8167 ft 100 kts 112°
2026-04-30 03:02 10.61315 123.36454 8050 ft 99 kts 112°
2026-04-30 03:02 10.61012 123.37085 7937 ft 100 kts 112°
2026-04-30 03:02 10.60705 123.37727 7815 ft 101 kts 112°
2026-04-30 03:03 10.60396 123.38370 7695 ft 102 kts 112°
2026-04-30 03:03 10.59774 123.39669 7460 ft 104 kts 112°
2026-04-30 03:03 10.59455 123.40335 7348 ft 105 kts 112°
2026-04-30 03:04 10.59134 123.41004 7238 ft 106 kts 113°
2026-04-30 03:04 10.58814 123.41669 7127 ft 104 kts 112°
2026-04-30 03:04 10.58601 123.42113 7041 ft 106 kts 112°
2026-04-30 03:04 10.58288 123.42762 7018 ft 98 kts 111°
2026-04-30 03:05 10.57999 123.43369 7005 ft 93 kts 112°
2026-04-30 03:05 10.57719 123.43953 7006 ft 91 kts 111°
2026-04-30 03:05 10.57445 123.44526 7005 ft 91 kts 112°
2026-04-30 03:05 10.57169 123.45102 7005 ft 91 kts 112°
2026-04-30 03:06 10.56894 123.45675 7004 ft 90 kts 112°
2026-04-30 03:06 10.56617 123.46250 7008 ft 91 kts 112°
2026-04-30 03:06 10.56341 123.46827 7005 ft 90 kts 112°
2026-04-30 03:06 10.56066 123.47400 7005 ft 89 kts 112°
2026-04-30 03:07 10.55796 123.47964 7004 ft 88 kts 112°
2026-04-30 03:07 10.55528 123.48523 7000 ft 88 kts 112°
2026-04-30 03:07 10.55262 123.49077 7007 ft 87 kts 112°
2026-04-30 03:07 10.54996 123.49631 7006 ft 87 kts 112°
2026-04-30 03:08 10.54730 123.50185 7001 ft 87 kts 112°
2026-04-30 03:08 10.54466 123.50736 7004 ft 86 kts 112°
2026-04-30 03:08 10.54204 123.51282 7003 ft 85 kts 112°
2026-04-30 03:08 10.53943 123.51826 7005 ft 86 kts 112°
2026-04-30 03:09 10.53719 123.52375 7004 ft 86 kts 116°
2026-04-30 03:09 10.53439 123.52916 7004 ft 86 kts 113°
2026-04-30 03:09 10.53170 123.53459 7004 ft 86 kts 113°
2026-04-30 03:09 10.52908 123.53997 7003 ft 86 kts 112°
2026-04-30 03:10 10.52643 123.54542 7005 ft 86 kts 112°
2026-04-30 03:10 10.52380 123.55087 7004 ft 86 kts 112°
2026-04-30 03:10 10.52118 123.55632 7008 ft 86 kts 112°
2026-04-30 03:10 10.51900 123.56085 7006 ft 86 kts 112°
2026-04-30 03:11 10.51636 123.56634 7004 ft 86 kts 112°
2026-04-30 03:11 10.51374 123.57179 7005 ft 86 kts 112°
2026-04-30 03:11 10.51112 123.57725 7006 ft 86 kts 112°
2026-04-30 03:11 10.50849 123.58271 7002 ft 86 kts 112°
2026-04-30 03:12 10.50590 123.58811 7007 ft 86 kts 112°
2026-04-30 03:12 10.50329 123.59356 7003 ft 86 kts 112°
2026-04-30 03:12 10.50067 123.59901 7005 ft 86 kts 112°
2026-04-30 03:12 10.49806 123.60445 7007 ft 86 kts 112°
2026-04-30 03:13 10.49544 123.60990 7005 ft 86 kts 112°
2026-04-30 03:13 10.49282 123.61535 7002 ft 86 kts 111°
2026-04-30 03:13 10.49020 123.62080 7003 ft 86 kts 111°
2026-04-30 03:13 10.48760 123.62624 7000 ft 85 kts 112°
2026-04-30 03:14 10.48499 123.63166 7001 ft 86 kts 112°
2026-04-30 03:14 10.48237 123.63712 7002 ft 86 kts 112°
2026-04-30 03:14 10.47975 123.64259 7006 ft 86 kts 112°
2026-04-30 03:14 10.47711 123.64808 7009 ft 86 kts 112°
2026-04-30 03:15 10.47447 123.65358 7006 ft 87 kts 112°
2026-04-30 03:15 10.47182 123.65909 7008 ft 87 kts 112°
2026-04-30 03:15 10.46917 123.66462 7004 ft 87 kts 112°
2026-04-30 03:15 10.46652 123.67014 7001 ft 87 kts 112°
2026-04-30 03:16 10.46389 123.67562 7003 ft 86 kts 112°
2026-04-30 03:16 10.46127 123.68106 6999 ft 86 kts 112°
2026-04-30 03:16 10.45867 123.68648 7001 ft 85 kts 111°
2026-04-30 03:16 10.45606 123.69191 6998 ft 86 kts 111°
2026-04-30 03:17 10.45345 123.69733 6998 ft 85 kts 111°
2026-04-30 03:17 10.45088 123.70272 7000 ft 86 kts 112°
2026-04-30 03:17 10.44829 123.70809 6995 ft 84 kts 112°
2026-04-30 03:17 10.44573 123.71342 6995 ft 83 kts 113°
2026-04-30 03:18 10.44323 123.71862 6992 ft 83 kts 112°
2026-04-30 03:18 10.44071 123.72388 6998 ft 84 kts 112°
2026-04-30 03:18 10.43819 123.72913 6993 ft 80 kts 113°
2026-04-30 03:18 10.43584 123.73401 6994 ft 75 kts 111°
2026-04-30 03:19 10.43352 123.73888 6996 ft 78 kts 110°
2026-04-30 03:19 10.43123 123.74366 6999 ft 85 kts 111°
2026-04-30 03:19 10.42850 123.74936 6926 ft 95 kts 112°
2026-04-30 03:19 10.42552 123.75558 6815 ft 100 kts 112°
2026-04-30 03:20 10.42238 123.76209 6714 ft 106 kts 114°
2026-04-30 03:20 10.41912 123.76885 6606 ft 107 kts 112°
2026-04-30 03:20 10.41583 123.77570 6495 ft 109 kts 112°
2026-04-30 03:20 10.41255 123.78248 6386 ft 109 kts 112°
2026-04-30 03:21 10.40914 123.78961 6261 ft 112 kts 112°
2026-04-30 03:21 10.40573 123.79673 6151 ft 112 kts 114°
2026-04-30 03:21 10.40244 123.80357 6035 ft 109 kts 112°
2026-04-30 03:21 10.39908 123.81054 5915 ft 111 kts 112°
2026-04-30 03:22 10.39566 123.81767 5793 ft 113 kts 112°
2026-04-30 03:22 10.39218 123.82491 5677 ft 116 kts 112°
2026-04-30 03:22 10.38863 123.83231 5555 ft 117 kts 112°
2026-04-30 03:22 10.38512 123.83962 5434 ft 114 kts 112°
2026-04-30 03:23 10.38166 123.84681 5315 ft 114 kts 111°
2026-04-30 03:23 10.37820 123.85401 5189 ft 113 kts 112°
2026-04-30 03:23 10.37474 123.86122 5073 ft 115 kts 112°
2026-04-30 03:23 10.37124 123.86853 4960 ft 116 kts 112°
2026-04-30 03:24 10.36765 123.87598 4842 ft 119 kts 114°
2026-04-30 03:24 10.36401 123.88355 4729 ft 119 kts 112°
2026-04-30 03:24 10.36037 123.89118 4604 ft 120 kts 114°
2026-04-30 03:24 10.35672 123.89877 4473 ft 119 kts 114°
2026-04-30 03:25 10.35305 123.90634 4362 ft 120 kts 113°
2026-04-30 03:25 10.34946 123.91397 4239 ft 120 kts 112°
2026-04-30 03:25 10.34589 123.92134 4108 ft 113 kts 113°
2026-04-30 03:25 10.34255 123.92835 3998 ft 108 kts 112°
2026-04-30 03:26 10.33942 123.93492 3989 ft 100 kts 112°
2026-04-30 03:26 10.33646 123.94109 3985 ft 95 kts 112°
2026-04-30 03:26 10.33353 123.94701 3987 ft 94 kts 112°
2026-04-30 03:26 10.33060 123.95298 3985 ft 95 kts 111°
2026-04-30 03:27 10.32760 123.95899 3978 ft 95 kts 112°
2026-04-30 03:27 10.32467 123.96488 3987 ft 93 kts 112°
2026-04-30 03:27 10.32178 123.97073 3990 ft 94 kts 112°
2026-04-30 03:27 10.31885 123.97676 3995 ft 96 kts 112°
2026-04-30 03:28 10.31583 123.98283 3991 ft 96 kts 112°
2026-04-30 03:28 10.31273 123.98882 3995 ft 97 kts 119°
2026-04-30 03:28 10.30625 123.99059 3984 ft 112 kts 198°
2026-04-30 03:28 10.30149 123.98440 3997 ft 115 kts 242°
2026-04-30 03:29 10.29774 123.97720 3995 ft 116 kts 240°
2026-04-30 03:29 10.29400 123.96998 3996 ft 115 kts 240°
2026-04-30 03:29 10.29028 123.96278 3994 ft 115 kts 240°
2026-04-30 03:29 10.28668 123.95568 4000 ft 116 kts 240°
2026-04-30 03:30 10.28577 123.94786 3981 ft 116 kts 301°
2026-04-30 03:30 10.29206 123.94469 3984 ft 103 kts 19°
2026-04-30 03:30 10.29664 123.94951 3992 ft 96 kts 63°
2026-04-30 03:30 10.29896 123.95586 3993 ft 95 kts 77°
2026-04-30 03:31 10.30046 123.96238 3990 ft 94 kts 71°
2026-04-30 03:31 10.30353 123.96817 3989 ft 92 kts 62°
2026-04-30 03:31 10.30663 123.97376 3984 ft 90 kts 62°
2026-04-30 03:31 10.30982 123.97929 3988 ft 91 kts 63°
2026-04-30 03:32 10.31300 123.98488 3996 ft 92 kts 62°
2026-04-30 03:32 10.31537 123.99088 3985 ft 94 kts 94°
2026-04-30 03:32 10.31050 123.99497 3984 ft 107 kts 175°
2026-04-30 03:32 10.30461 123.99038 3988 ft 115 kts 242°
2026-04-30 03:33 10.30099 123.98313 3991 ft 115 kts 240°
2026-04-30 03:33 10.29734 123.97591 4002 ft 117 kts 241°
2026-04-30 03:33 10.29366 123.96857 3996 ft 116 kts 240°
2026-04-30 03:33 10.28996 123.96129 3997 ft 115 kts 240°
2026-04-30 03:34 10.28662 123.95392 3999 ft 116 kts 258°
2026-04-30 03:34 10.28950 123.94702 3983 ft 107 kts 338°
2026-04-30 03:34 10.29579 123.94822 3988 ft 95 kts 56°
2026-04-30 03:34 10.29911 123.95400 3994 ft 95 kts 62°
2026-04-30 03:35 10.30207 123.95988 4001 ft 93 kts 72°
2026-04-30 03:35 10.30410 123.96610 3995 ft 91 kts 72°
2026-04-30 03:35 10.30593 123.97221 3998 ft 89 kts 72°
2026-04-30 03:35 10.30902 123.97775 3994 ft 92 kts 58°
2026-04-30 03:36 10.31256 123.98316 4018 ft 91 kts 58°
2026-04-30 03:36 10.31613 123.98846 4070 ft 91 kts 52°
2026-04-30 03:36 10.32055 123.99303 4039 ft 92 kts 49°
2026-04-30 03:36 10.32530 123.99749 3919 ft 96 kts 41°
2026-04-30 03:37 10.33016 124.00193 3787 ft 93 kts 56°
2026-04-30 03:37 10.33386 124.00727 3663 ft 93 kts 64°
2026-04-30 03:37 10.33662 124.01319 3537 ft 92 kts 63°
2026-04-30 03:37 10.33968 124.01877 3430 ft 90 kts 64°
2026-04-30 03:38 10.34297 124.02434 3281 ft 93 kts 58°
2026-04-30 03:38 10.34673 124.02949 3200 ft 89 kts 56°
2026-04-30 03:38 10.34988 124.03493 3081 ft 88 kts 64°
2026-04-30 03:38 10.35259 124.04069 2906 ft 92 kts 62°
2026-04-30 03:39 10.35724 124.04524 2707 ft 98 kts 41°
2026-04-30 03:39 10.36267 124.04955 2547 ft 100 kts 40°
2026-04-30 03:39 10.36776 124.05355 2704 ft 86 kts 50°
2026-04-30 03:39 10.37048 124.05859 2845 ft 80 kts 68°
2026-04-30 03:40 10.37271 124.06377 2974 ft 78 kts 65°
2026-04-30 03:40 10.37686 124.06781 2870 ft 91 kts 38°
2026-04-30 03:40 10.38175 124.07134 2945 ft 82 kts 43°
2026-04-30 03:40 10.38536 124.07565 3009 ft 81 kts 63°
2026-04-30 03:41 10.38783 124.08107 2998 ft 87 kts 67°
2026-04-30 03:41 10.39045 124.08665 3014 ft 88 kts 66°
2026-04-30 03:41 10.39294 124.09246 3014 ft 90 kts 66°
2026-04-30 03:41 10.39604 124.09800 2996 ft 95 kts 51°
2026-04-30 03:42 10.40105 124.10258 2963 ft 97 kts 41°
2026-04-30 03:42 10.40609 124.10711 2942 ft 99 kts 46°
2026-04-30 03:42 10.41090 124.11200 2970 ft 96 kts 53°
2026-04-30 03:42 10.41489 124.11733 2989 ft 94 kts 58°
2026-04-30 03:43 10.41801 124.12321 2989 ft 94 kts 61°
2026-04-30 03:43 10.42177 124.12871 2992 ft 96 kts 55°
2026-04-30 03:43 10.42597 124.13410 2978 ft 98 kts 52°
2026-04-30 03:43 10.43032 124.13923 2992 ft 96 kts 55°
2026-04-30 03:44 10.43457 124.14456 2974 ft 96 kts 52°
2026-04-30 03:44 10.43902 124.14962 2973 ft 97 kts 49°
2026-04-30 03:44 10.44377 124.15460 2937 ft 101 kts 40°
2026-04-30 03:44 10.45051 124.15577 2958 ft 107 kts 346°
2026-04-30 03:45 10.45535 124.14993 2923 ft 118 kts 284°
2026-04-30 03:45 10.45626 124.14175 2989 ft 110 kts 276°
2026-04-30 03:45 10.45638 124.13393 2995 ft 113 kts 269°
2026-04-30 03:45 10.45431 124.12627 2900 ft 117 kts 226°
2026-04-30 03:46 10.45040 124.12237 2754 ft 122 kts 218°
2026-04-30 03:46 10.44163 124.11485 2642 ft 122 kts 219°
2026-04-30 03:46 10.43562 124.10904 2632 ft 119 kts 222°
2026-04-30 03:46 10.42962 124.10344 2617 ft 119 kts 222°
2026-04-30 03:47 10.42400 124.09757 2659 ft 114 kts 223°
2026-04-30 03:47 10.41829 124.09186 2661 ft 115 kts 221°
2026-04-30 03:47 10.41279 124.08600 2536 ft 115 kts 225°
2026-04-30 03:47 10.40707 124.07999 2332 ft 121 kts 223°
2026-04-30 03:48 10.40076 124.07387 2054 ft 128 kts 221°
2026-04-30 03:48 10.39675 124.06979 2069 ft 119 kts 223°
2026-04-30 03:48 10.39094 124.06390 1947 ft 119 kts 221°
2026-04-30 03:48 10.38483 124.05817 1808 ft 117 kts 218°
2026-04-30 03:49 10.37895 124.05231 1665 ft 120 kts 224°
2026-04-30 03:49 10.37364 124.04592 1500 ft 117 kts 227°
2026-04-30 03:49 10.36614 124.03846 1321 ft 110 kts 222°
2026-04-30 03:49 10.36237 124.03475 1244 ft 115 kts 223°
2026-04-30 03:50 10.35655 124.02886 1060 ft 117 kts 225°
2026-04-30 03:50 10.35109 124.02314 965 ft 114 kts 224°
2026-04-30 03:50 10.34523 124.01743 778 ft 117 kts 224°
2026-04-30 03:50 10.33959 124.01155 636 ft 115 kts 226°
2026-04-30 03:51 10.33389 124.00604 481 ft 109 kts 230°
2026-04-30 03:51 10.32888 124.00076 390 ft 100 kts 224°
2026-04-30 03:51 10.32358 123.99572 236 ft 111 kts 229°
2026-04-30 03:51 10.31821 123.99010 70 ft 105 kts 227°
2026-04-30 03:52 10.31355 123.98546 38 ft 81 kts 227°
2026-04-30 03:52 10.31006 123.98198 36 ft 58 kts 229°
2026-04-30 03:52 10.30770 123.97961 30 ft 31 kts 230°
2026-04-30 03:52 10.30657 123.97932 30 ft 15 kts 135°
2026-04-30 03:53 10.30592 123.97998 32 ft 12 kts 143°
2026-04-30 03:53 10.30515 123.97965 32 ft 15 kts 226°
2026-04-30 03:53 10.30430 123.97879 32 ft 20 kts 225°
2026-04-30 03:53 10.30319 123.97768 33 ft 25 kts 225°
2026-04-30 03:54 10.30186 123.97635 33 ft 29 kts 224°
2026-04-30 03:54 10.30054 123.97502 32 ft 21 kts 213°
2026-04-30 03:54 10.29949 123.97461 33 ft 17 kts 226°
2026-04-30 03:54 10.29858 123.97368 33 ft 20 kts 223°
2026-04-30 03:55 10.29757 123.97265 32 ft 20 kts 223°
2026-04-30 03:55 10.29703 123.97238 33 ft 5 kts 56°
2026-04-30 03:55 10.29704 123.97239 33 ft 0 kts 47°